TimeCDT,TemperatureF,Dew PointF,Humidity,Sea Level PressureIn,VisibilityMPH,Wind Direction,Wind SpeedMPH,Gust SpeedMPH,PrecipitationIn,Events,Conditions,WindDirDegrees,DateUTC
12:15 AM,69.8,55.4,60,29.87,10.0,North,-9999.0,-,N/A,,Scattered Clouds,0,2013-06-13 05:15:00
12:35 AM,69.8,53.6,56,29.87,10.0,North,11.5,18.4,N/A,,Mostly Cloudy,10,2013-06-13 05:35:00
12:55 AM,68.0,53.6,60,29.89,10.0,North,11.5,19.6,N/A,,Scattered Clouds,10,2013-06-13 05:55:00
1:15 AM,68.0,51.8,56,29.90,10.0,North,10.4,16.1,N/A,,Scattered Clouds,10,2013-06-13 06:15:00
1:35 AM,66.2,51.8,60,29.90,10.0,NNE,9.2,-,N/A,,Scattered Clouds,20,2013-06-13 06:35:00
1:55 AM,66.2,51.8,60,29.91,10.0,NNE,10.4,18.4,N/A,,Clear,20,2013-06-13 06:55:00
2:15 AM,66.2,50.0,56,29.91,10.0,NNE,10.4,-,N/A,,Clear,30,2013-06-13 07:15:00
2:35 AM,64.4,50.0,59,29.93,10.0,North,6.9,-,N/A,,Clear,360,2013-06-13 07:35:00
2:55 AM,62.6,51.8,68,29.93,10.0,West,4.6,-,N/A,,Scattered Clouds,270,2013-06-13 07:55:00
3:15 AM,62.6,51.8,68,29.94,10.0,West,4.6,-,N/A,,Scattered Clouds,280,2013-06-13 08:15:00
3:35 AM,60.8,51.8,72,29.95,10.0,West,4.6,-,N/A,,Clear,280,2013-06-13 08:35:00
3:55 AM,60.8,51.8,72,29.96,10.0,WNW,4.6,-,N/A,,Scattered Clouds,290,2013-06-13 08:55:00
4:15 AM,60.8,51.8,72,29.97,10.0,West,4.6,-,N/A,,Scattered Clouds,280,2013-06-13 09:15:00
4:35 AM,59.0,51.8,77,29.97,10.0,West,4.6,-,N/A,,Scattered Clouds,280,2013-06-13 09:35:00
4:55 AM,57.2,51.8,82,29.97,10.0,West,3.5,-,N/A,,Clear,280,2013-06-13 09:55:00
5:15 AM,57.2,50.0,77,29.97,10.0,Calm,Calm,-,N/A,,Clear,0,2013-06-13 10:15:00
5:35 AM,57.2,50.0,77,29.98,10.0,West,4.6,-,N/A,,Clear,270,2013-06-13 10:35:00
5:55 AM,57.2,51.8,82,29.99,10.0,West,4.6,-,N/A,,Clear,280,2013-06-13 10:55:00
6:15 AM,57.2,51.8,82,30.00,10.0,West,4.6,-,N/A,,Clear,270,2013-06-13 11:15:00
6:35 AM,60.8,51.8,72,30.00,10.0,West,3.5,-,N/A,,Clear,270,2013-06-13 11:35:00
6:55 AM,60.8,51.8,72,30.01,10.0,WSW,4.6,-,N/A,,Clear,250,2013-06-13 11:55:00
7:15 AM,62.6,51.8,68,30.02,10.0,Calm,Calm,-,N/A,,Clear,0,2013-06-13 12:15:00
7:35 AM,62.6,51.8,68,30.03,10.0,North,4.6,-,N/A,,Clear,350,2013-06-13 12:35:00
7:55 AM,64.4,51.8,64,30.03,10.0,North,3.5,-,N/A,,Clear,350,2013-06-13 12:55:00
8:15 AM,64.4,51.8,64,30.03,10.0,NNE,3.5,-,N/A,,Clear,20,2013-06-13 13:15:00
8:35 AM,64.4,51.8,64,30.03,10.0,ENE,3.5,-,N/A,,Clear,60,2013-06-13 13:35:00
8:54 AM,66.2,53.6,64,30.04,10.0,North,6.9,-,N/A,,Clear,10,2013-06-13 13:54:00
9:15 AM,66.2,53.6,64,30.04,10.0,Calm,Calm,-,N/A,,Clear,0,2013-06-13 14:15:00
9:35 AM,68.0,53.6,60,30.05,10.0,Calm,Calm,-,N/A,,Clear,0,2013-06-13 14:35:00
9:55 AM,69.8,53.6,56,30.05,10.0,East,3.5,-,N/A,,Clear,80,2013-06-13 14:55:00
10:15 AM,69.8,53.6,56,30.06,10.0,North,3.5,-,N/A,,Clear,10,2013-06-13 15:15:00
10:35 AM,71.6,55.4,57,30.06,10.0,North,8.1,-,N/A,,Clear,360,2013-06-13 15:35:00
10:55 AM,71.6,55.4,57,30.06,10.0,North,5.8,-,N/A,,Clear,350,2013-06-13 15:55:00
11:15 AM,71.6,55.4,57,30.07,10.0,North,6.9,-,N/A,,Clear,360,2013-06-13 16:15:00
11:35 AM,71.6,55.4,57,30.07,10.0,Calm,Calm,-,N/A,,Clear,0,2013-06-13 16:35:00
11:55 AM,73.4,53.6,50,30.07,10.0,North,5.8,-,N/A,,Clear,350,2013-06-13 16:55:00
12:14 PM,73.4,53.6,50,30.07,10.0,North,6.9,-,N/A,,Clear,350,2013-06-13 17:14:00
12:35 PM,75.2,53.6,47,30.07,10.0,North,5.8,-,N/A,,Clear,360,2013-06-13 17:35:00
12:55 PM,75.2,53.6,47,30.07,10.0,NE,5.8,-,N/A,,Clear,40,2013-06-13 17:55:00
1:15 PM,75.2,53.6,47,30.07,10.0,NE,8.1,-,N/A,,Clear,40,2013-06-13 18:15:00
1:35 PM,75.2,53.6,47,30.07,10.0,NNE,9.2,-,N/A,,Scattered Clouds,30,2013-06-13 18:35:00
1:55 PM,75.2,53.6,47,30.07,10.0,NNW,10.4,-,N/A,,Scattered Clouds,340,2013-06-13 18:55:00
2:15 PM,77.0,51.8,41,30.06,10.0,NNE,9.2,-,N/A,,Clear,20,2013-06-13 19:15:00
2:35 PM,77.0,53.6,44,30.06,10.0,North,9.2,-,N/A,,Scattered Clouds,350,2013-06-13 19:35:00
2:55 PM,77.0,53.6,44,30.06,10.0,North,9.2,-,N/A,,Scattered Clouds,360,2013-06-13 19:55:00
3:15 PM,77.0,53.6,44,30.06,10.0,NNE,8.1,-,N/A,,Clear,30,2013-06-13 20:15:00
3:34 PM,78.8,53.6,42,30.05,10.0,ENE,5.8,-,N/A,,Clear,60,2013-06-13 20:34:00
3:55 PM,78.8,53.6,42,30.05,10.0,NNE,8.1,-,N/A,,Clear,20,2013-06-13 20:55:00
4:15 PM,77.0,53.6,44,30.05,10.0,NE,8.1,-,N/A,,Clear,40,2013-06-13 21:15:00
4:35 PM,77.0,53.6,44,30.04,10.0,NNE,6.9,-,N/A,,Clear,30,2013-06-13 21:35:00
4:55 PM,77.0,53.6,44,30.04,10.0,NNE,6.9,-,N/A,,Clear,20,2013-06-13 21:55:00
5:15 PM,78.8,53.6,42,30.04,10.0,NNE,4.6,-,N/A,,Clear,20,2013-06-13 22:15:00
5:35 PM,77.0,53.6,44,30.04,10.0,ENE,5.8,-,N/A,,Clear,70,2013-06-13 22:35:00
5:55 PM,77.0,53.6,44,30.04,10.0,NE,6.9,-,N/A,,Clear,40,2013-06-13 22:55:00
6:15 PM,77.0,51.8,41,30.04,10.0,East,8.1,-,N/A,,Clear,80,2013-06-13 23:15:00
6:35 PM,77.0,51.8,41,30.04,10.0,ENE,4.6,-,N/A,,Clear,60,2013-06-13 23:35:00
6:55 PM,77.0,53.6,44,30.04,10.0,NE,3.5,-,N/A,,Clear,40,2013-06-13 23:55:00
7:15 PM,77.0,51.8,41,30.05,10.0,East,3.5,-,N/A,,Clear,90,2013-06-14 00:15:00
7:35 PM,75.2,51.8,44,30.05,10.0,ENE,4.6,-,N/A,,Clear,60,2013-06-14 00:35:00
7:55 PM,75.2,53.6,47,30.05,10.0,Calm,Calm,-,N/A,,Clear,0,2013-06-14 00:55:00
8:15 PM,73.4,55.4,53,30.05,10.0,Calm,Calm,-,N/A,,Clear,0,2013-06-14 01:15:00
8:35 PM,71.6,59.0,64,30.05,10.0,Calm,Calm,-,N/A,,Clear,0,2013-06-14 01:35:00
8:55 PM,68.0,59.0,73,30.05,10.0,Calm,Calm,-,N/A,,Clear,0,2013-06-14 01:55:00
9:15 PM,66.2,57.2,73,30.05,10.0,Calm,Calm,-,N/A,,Clear,0,2013-06-14 02:15:00
9:35 PM,64.4,57.2,77,30.05,10.0,Calm,Calm,-,N/A,,Clear,0,2013-06-14 02:35:00
9:55 PM,62.6,57.2,82,30.06,10.0,Calm,Calm,-,N/A,,Clear,0,2013-06-14 02:55:00
10:15 PM,62.6,57.2,82,30.06,10.0,Calm,Calm,-,N/A,,Clear,0,2013-06-14 03:15:00
10:35 PM,60.8,57.2,88,30.07,10.0,Calm,Calm,-,N/A,,Clear,0,2013-06-14 03:35:00
10:55 PM,60.8,57.2,88,30.07,10.0,Calm,Calm,-,N/A,,Clear,0,2013-06-14 03:55:00
11:15 PM,59.0,55.4,88,30.07,10.0,Calm,Calm,-,N/A,,Clear,0,2013-06-14 04:15:00
11:35 PM,60.8,55.4,82,30.07,10.0,SE,3.5,-,N/A,,Clear,130,2013-06-14 04:35:00
11:55 PM,60.8,53.6,77,30.07,10.0,SSE,3.5,-,N/A,,Clear,150,2013-06-14 04:55:00